TimeEST,TemperatureF,Dew PointF,Humidity,Sea Level PressureIn,VisibilityMPH,Wind Direction,Wind SpeedMPH,Gust SpeedMPH,PrecipitationIn,Events,Conditions,WindDirDegrees,DateUTC
12:15 AM,58.5,41.2,53,30.05,10.0,South,13.8,23.0,N/A,,Scattered Clouds,190,2012-12-02 05:15:00
12:35 AM,58.6,41.4,53,30.05,10.0,South,18.4,23.0,N/A,,Scattered Clouds,190,2012-12-02 05:35:00
12:55 AM,58.6,41.9,54,30.04,10.0,South,13.8,-,N/A,,Scattered Clouds,190,2012-12-02 05:55:00
1:15 AM,58.8,42.4,55,30.04,10.0,South,12.7,18.4,N/A,,Mostly Cloudy,190,2012-12-02 06:15:00
1:35 AM,58.8,43.0,56,30.03,10.0,South,13.8,18.4,N/A,,Overcast,190,2012-12-02 06:35:00
1:55 AM,58.8,43.7,57,30.03,10.0,South,12.7,-,N/A,,Overcast,190,2012-12-02 06:55:00
2:15 AM,59.0,44.1,58,30.02,10.0,South,12.7,-,N/A,,Overcast,190,2012-12-02 07:15:00
2:55 AM,59.4,45.1,59,30.02,10.0,SSW,15.0,20.7,N/A,,Overcast,200,2012-12-02 07:55:00
3:15 AM,59.4,45.9,61,30.01,10.0,South,12.7,20.7,N/A,Rain,Rain,190,2012-12-02 08:15:00
3:35 AM,57.6,47.8,70,30.00,10.0,South,12.7,18.4,0.01,Rain,Light Rain,190,2012-12-02 08:35:00
3:55 AM,57.6,48.2,71,30.00,10.0,South,10.4,16.1,0.01,,Overcast,190,2012-12-02 08:55:00
4:15 AM,58.1,47.8,69,29.99,10.0,South,12.7,18.4,N/A,,Overcast,190,2012-12-02 09:15:00
4:35 AM,59.0,47.7,66,29.99,10.0,SSW,16.1,23.0,N/A,Rain,Rain,200,2012-12-02 09:35:00
4:55 AM,57.6,49.1,73,30.00,7.0,SW,18.4,26.5,0.03,Rain,Heavy Rain,220,2012-12-02 09:55:00
5:15 AM,56.1,50.0,80,29.99,7.0,SSW,13.8,21.9,0.04,Rain,Rain,210,2012-12-02 10:15:00
5:35 AM,55.6,50.5,83,29.99,7.0,SSW,12.7,-,0.06,Rain,Light Rain,210,2012-12-02 10:35:00
5:55 AM,55.2,50.5,84,29.99,7.0,SSW,12.7,20.7,0.07,Rain,Light Rain,200,2012-12-02 10:55:00
6:15 AM,55.4,50.9,85,29.99,10.0,SSW,15.0,20.7,N/A,,Drizzle,200,2012-12-02 11:15:00
6:35 AM,55.4,50.5,84,29.99,7.0,SSW,13.8,20.7,0.01,Rain,Light Rain,200,2012-12-02 11:35:00
6:55 AM,55.4,50.7,84,29.99,10.0,SSW,13.8,19.6,0.01,,Overcast,210,2012-12-02 11:55:00
7:15 AM,55.6,50.5,83,30.00,10.0,SSW,11.5,21.9,N/A,,Overcast,210,2012-12-02 12:15:00
7:35 AM,55.6,50.5,83,30.01,10.0,SSW,15.0,-,N/A,,Overcast,210,2012-12-02 12:35:00
7:55 AM,55.8,50.7,83,30.01,10.0,SSW,13.8,20.7,N/A,,Overcast,210,2012-12-02 12:55:00
8:15 AM,55.9,50.5,82,30.02,10.0,SSW,13.8,-,N/A,,Overcast,210,2012-12-02 13:15:00
8:35 AM,55.9,50.4,82,30.02,10.0,SW,13.8,18.4,N/A,,Overcast,220,2012-12-02 13:35:00
8:55 AM,56.3,50.5,81,30.03,10.0,SW,12.7,18.4,N/A,,Overcast,220,2012-12-02 13:55:00
9:15 AM,56.5,50.5,80,30.03,10.0,SSW,12.7,17.3,N/A,,Overcast,210,2012-12-02 14:15:00
9:35 AM,56.7,50.9,81,30.03,10.0,SW,13.8,17.3,N/A,,Overcast,220,2012-12-02 14:35:00
9:55 AM,57.2,51.1,80,30.04,10.0,SW,12.7,-,N/A,,Overcast,220,2012-12-02 14:55:00
10:15 AM,57.4,51.1,79,30.04,10.0,SW,10.4,-,N/A,,Overcast,220,2012-12-02 15:15:00
10:35 AM,58.5,52.0,79,30.04,10.0,SW,12.7,-,N/A,,Overcast,220,2012-12-02 15:35:00
10:55 AM,59.4,52.2,77,30.04,10.0,SW,12.7,19.6,N/A,,Mostly Cloudy,230,2012-12-02 15:55:00
11:15 AM,59.9,52.7,77,30.04,10.0,SW,13.8,21.9,N/A,,Overcast,230,2012-12-02 16:15:00
11:35 AM,60.1,52.7,77,30.04,10.0,SW,13.8,-,N/A,,Overcast,230,2012-12-02 16:35:00
11:55 AM,60.8,52.9,75,30.03,10.0,SW,16.1,24.2,N/A,,Overcast,230,2012-12-02 16:55:00
12:15 PM,61.5,53.8,76,30.03,10.0,SW,13.8,-,N/A,,Mostly Cloudy,230,2012-12-02 17:15:00
12:35 PM,61.7,54.0,76,30.03,10.0,SW,10.4,-,N/A,,Overcast,220,2012-12-02 17:35:00
12:55 PM,61.0,53.6,77,30.03,10.0,SW,11.5,17.3,N/A,,Overcast,220,2012-12-02 17:55:00
1:15 PM,61.0,53.8,77,30.03,10.0,SW,9.2,-,N/A,,Overcast,230,2012-12-02 18:15:00
1:35 PM,60.8,54.0,78,30.02,10.0,SW,8.1,-,N/A,,Overcast,220,2012-12-02 18:35:00
1:55 PM,60.8,54.0,78,30.02,10.0,SSW,8.1,-,N/A,,Overcast,210,2012-12-02 18:55:00
2:15 PM,60.8,54.1,79,30.02,10.0,SSW,6.9,-,N/A,,Overcast,210,2012-12-02 19:15:00
2:35 PM,61.2,54.5,79,30.03,10.0,SSW,9.2,-,N/A,,Overcast,210,2012-12-02 19:35:00
2:55 PM,61.9,54.7,77,30.03,10.0,SSW,8.1,-,N/A,,Mostly Cloudy,200,2012-12-02 19:55:00
3:15 PM,61.7,54.7,78,30.03,10.0,SSW,8.1,-,N/A,,Mostly Cloudy,210,2012-12-02 20:15:00
3:35 PM,61.5,54.9,79,30.03,10.0,SSW,9.2,-,N/A,,Overcast,210,2012-12-02 20:35:00
3:55 PM,61.7,54.7,78,30.04,10.0,SSW,9.2,-,N/A,,Overcast,210,2012-12-02 20:55:00
4:15 PM,60.8,54.7,80,30.04,10.0,SSW,5.8,-,N/A,,Scattered Clouds,200,2012-12-02 21:15:00
4:55 PM,60.1,54.5,82,30.04,10.0,SSW,9.2,-,N/A,,Scattered Clouds,200,2012-12-02 21:55:00
5:15 PM,59.0,53.8,83,30.05,10.0,SSW,5.8,-,N/A,,Clear,210,2012-12-02 22:15:00
5:35 PM,58.1,53.6,85,30.05,7.0,SSW,4.6,-,N/A,,Clear,200,2012-12-02 22:35:00
5:55 PM,56.8,52.5,85,30.06,7.0,SSW,3.5,-,N/A,,Clear,200,2012-12-02 22:55:00
6:15 PM,55.2,51.3,87,30.06,7.0,SSW,3.5,-,N/A,,Clear,200,2012-12-02 23:15:00
6:35 PM,53.8,50.2,88,30.06,4.0,South,3.5,-,N/A,,Mostly Cloudy,190,2012-12-02 23:35:00
6:55 PM,54.5,51.3,89,30.07,4.0,South,4.6,-,N/A,,Mostly Cloudy,180,2012-12-02 23:55:00
7:15 PM,54.5,51.4,89,30.07,3.0,South,5.8,-,N/A,,Overcast,180,2012-12-03 00:15:00
7:35 PM,54.5,51.3,89,30.08,2.0,South,5.8,-,N/A,,Overcast,180,2012-12-03 00:35:00
7:55 PM,55.4,52.3,89,30.08,3.0,South,5.8,-,N/A,,Overcast,190,2012-12-03 00:55:00
8:15 PM,55.6,52.7,90,30.09,3.0,South,4.6,-,N/A,,Overcast,190,2012-12-03 01:15:00
8:35 PM,55.0,52.2,90,30.10,2.5,South,3.5,-,N/A,,Mist,190,2012-12-03 01:35:00
8:55 PM,53.6,50.7,90,30.10,0.2,Calm,Calm,-,N/A,Fog,Fog,0,2012-12-03 01:55:00
9:15 PM,50.9,48.2,90,30.11,0.2,Calm,Calm,-,N/A,Fog,Fog,0,2012-12-03 02:15:00
9:35 PM,50.9,48.2,90,30.11,0.2,Calm,Calm,-,N/A,Fog,Fog,0,2012-12-03 02:35:00
9:55 PM,50.5,47.8,90,30.11,0.2,South,3.5,-,N/A,Fog,Fog,170,2012-12-03 02:55:00
10:15 PM,49.1,46.4,90,30.11,0.2,South,3.5,-,N/A,Fog,Fog,190,2012-12-03 03:15:00
10:35 PM,50.2,47.5,90,30.11,0.2,South,4.6,-,N/A,Fog,Fog,190,2012-12-03 03:35:00
10:55 PM,51.4,48.9,91,30.11,0.2,SSW,5.8,-,N/A,Fog,Fog,200,2012-12-03 03:55:00
11:15 PM,55.2,52.5,91,30.10,0.2,SW,5.8,-,N/A,Fog,Fog,220,2012-12-03 04:15:00
11:35 PM,55.8,53.1,91,30.10,0.5,South,3.5,-,N/A,Fog,Fog,180,2012-12-03 04:35:00
11:55 PM,55.9,53.2,91,30.10,0.5,SSW,4.6,-,N/A,Fog,Fog,200,2012-12-03 04:55:00